| time (UTC) | temp C | wind direction | speed KPH | gust KPH | rain 1hr cm | rain 24hr cm | rain mn cm | humidity % | barometer mb |
| 20260906214701 | 31 | 105 | 0.0 | 3.2 | 0.00 | 0.00 | 0.00 | 32 | |
| 20260906214156 | 31 | 160 | 0.0 | 1.6 | 0.00 | 0.00 | 0.00 | 31 | |
| 20260906213656 | 31 | 166 | 0.0 | 1.6 | 0.00 | 0.00 | 0.00 | 32 | |
| 20260906213150 | 31 | 149 | 1.6 | 3.2 | 0.00 | 0.00 | 0.00 | 32 | |
| 20260906212648 | 32 | 106 | 1.6 | 1.6 | 0.00 | 0.00 | 0.00 | 32 | |
| 20260906212144 | 32 | 121 | 1.6 | 1.6 | 0.00 | 0.00 | 0.00 | 32 | |
| 20260906211643 | 31 | 139 | 0.0 | 0.0 | 0.00 | 0.00 | 0.00 | 32 | |
| 20260906211138 | 31 | 105 | 0.0 | 1.6 | 0.00 | 0.00 | 0.00 | 32 | |
| 20260906210634 | 32 | 134 | 1.6 | 3.2 | 0.00 | 0.00 | 0.00 | 30 | |
| 20260906210134 | 32 | 136 | 0.0 | 1.6 | 0.00 | 0.00 | 0.00 | 31 | |
| 20260906205629 | 32 | 128 | 0.0 | 1.6 | 0.00 | 0.00 | 0.00 | 32 | |
| 20260906205126 | 32 | 347 | 0.0 | 1.6 | 0.00 | 0.00 | 0.00 | 32 | |
| 20260906204625 | 32 | 155 | 0.0 | 1.6 | 0.00 | 0.00 | 0.00 | 32 | |
| 20260906204119 | 32 | 110 | 1.6 | 1.6 | 0.00 | 0.00 | 0.00 | 32 | |
| 20260906203614 | 31 | 117 | 1.6 | 1.6 | 0.00 | 0.00 | 0.00 | 33 | |
| 20260906203108 | 31 | 105 | 0.0 | 1.6 | 0.00 | 0.00 | 0.00 | 31 | |
| 20260906202600 | 32 | 136 | 0.0 | 1.6 | 0.00 | 0.00 | 0.00 | 30 | |
| 20260906202059 | 31 | 96 | 0.0 | 1.6 | 0.00 | 0.00 | 0.00 | 31 | |
| 20260906201554 | 31 | 83 | 0.0 | 1.6 | 0.00 | 0.00 | 0.00 | 33 | |
| 20260906201053 | 31 | 142 | 1.6 | 1.6 | 0.00 | 0.00 | 0.00 | 31 | |
| 20260906200550 | 32 | 101 | 1.6 | 1.6 | 0.00 | 0.00 | 0.00 | 32 | |
| 20260906200045 | 31 | 274 | 0.0 | 1.6 | 0.00 | 0.00 | 0.00 | 33 | |
| 20260906195540 | 31 | 105 | 1.6 | 3.2 | 0.00 | 0.00 | 0.00 | 33 | |
| 20260906195037 | 31 | 137 | 0.0 | 1.6 | 0.00 | 0.00 | 0.00 | 31 | |
| 20260906194532 | 31 | 82 | 0.0 | 1.6 | 0.00 | 0.00 | 0.00 | 32 | |
| 20260906194028 | 31 | 85 | 0.0 | 1.6 | 0.00 | 0.00 | 0.00 | 33 | |
| 20260906193527 | 31 | 151 | 0.0 | 1.6 | 0.00 | 0.00 | 0.00 | 32 | |
| 20260906193023 | 31 | 151 | 1.6 | 1.6 | 0.00 | 0.00 | 0.00 | 33 | |
| 20260906192518 | 30 | 113 | 0.0 | 1.6 | 0.00 | 0.00 | 0.00 | 33 | |
| 20260906192017 | 30 | 114 | 1.6 | 1.6 | 0.00 | 0.00 | 0.00 | 34 | |
| 20260906191513 | 31 | 132 | 0.0 | 1.6 | 0.00 | 0.00 | 0.00 | 32 | |
| 20260906191012 | 31 | 111 | 0.0 | 3.2 | 0.00 | 0.00 | 0.00 | 34 | |
| 20260906190511 | 30 | 142 | 0.0 | 1.6 | 0.00 | 0.00 | 0.00 | 34 | |
| 20260906190007 | 30 | 165 | 0.0 | 3.2 | 0.00 | 0.00 | 0.00 | 33 | |
| 20260906185505 | 30 | 197 | 0.0 | 1.6 | 0.00 | 0.00 | 0.00 | 33 | |
| 20260906185004 | 30 | 150 | 0.0 | 1.6 | 0.00 | 0.00 | 0.00 | 34 | |
| 20260906184459 | 30 | 94 | 1.6 | 1.6 | 0.00 | 0.00 | 0.00 | 34 | |
| 20260906183955 | 30 | 120 | 1.6 | 3.2 | 0.00 | 0.00 | 0.00 | 34 | |
| 20260906183451 | 30 | 149 | 1.6 | 1.6 | 0.00 | 0.00 | 0.00 | 35 | |
| 20260906182946 | 30 | 104 | 1.6 | 3.2 | 0.00 | 0.00 | 0.00 | 35 | |
| 20260906182442 | 30 | 152 | 0.0 | 1.6 | 0.00 | 0.00 | 0.00 | 35 | |
| 20260906181937 | 30 | 12 | 0.0 | 1.6 | 0.00 | 0.00 | 0.00 | 35 | |
| 20260906181433 | 29 | 92 | 0.0 | 1.6 | 0.00 | 0.00 | 0.00 | 35 | |
| 20260906180928 | 30 | 149 | 1.6 | 1.6 | 0.00 | 0.00 | 0.00 | 34 | |
| 20260906180423 | 29 | 131 | 0.0 | 1.6 | 0.00 | 0.00 | 0.00 | 35 | |
| 20260906175921 | 29 | 115 | 0.0 | 1.6 | 0.00 | 0.00 | 0.00 | 36 | |
| 20260906175416 | 28 | 100 | 0.0 | 1.6 | 0.00 | 0.00 | 0.00 | 38 | |
| 20260906174915 | 29 | 146 | 0.0 | 1.6 | 0.00 | 0.00 | 0.00 | 35 | |
| 20260906174414 | 28 | 207 | 0.0 | 1.6 | 0.00 | 0.00 | 0.00 | 38 | |
| 20260906173909 | 28 | 167 | 0.0 | 1.6 | 0.00 | 0.00 | 0.00 | 37 | |
| 20260906173405 | 28 | 94 | 0.0 | 1.6 | 0.00 | 0.00 | 0.00 | 38 | |
| 20260906172904 | 28 | 138 | 1.6 | 1.6 | 0.00 | 0.00 | 0.00 | 37 | |
| 20260906172401 | 28 | 153 | 0.0 | 1.6 | 0.00 | 0.00 | 0.00 | 37 | |
| 20260906171855 | 28 | 122 | 0.0 | 1.6 | 0.00 | 0.00 | 0.00 | 36 | |
| 20260906171350 | 28 | 99 | 0.0 | 1.6 | 0.00 | 0.00 | 0.00 | 37 | |
| 20260906170845 | 27 | 99 | 0.0 | 1.6 | 0.00 | 0.00 | 0.00 | 39 | |
| 20260906170342 | 27 | 121 | 1.6 | 1.6 | 0.00 | 0.00 | 0.00 | 39 | |
| 20260906165837 | 27 | 120 | 0.0 | 0.0 | 0.00 | 0.00 | 0.00 | 39 | |
| 20260906165336 | 27 | 144 | 0.0 | 1.6 | 0.00 | 0.00 | 0.00 | 38 | |
| 20260906164832 | 27 | 309 | 0.0 | 1.6 | 0.00 | 0.00 | 0.00 | 39 | |
| 20260906164331 | 27 | 73 | 0.0 | 1.6 | 0.00 | 0.00 | 0.00 | 40 | |
| 20260906163827 | 27 | 5 | 0.0 | 0.0 | 0.00 | 0.00 | 0.00 | 39 | |
| 20260906163323 | 27 | 103 | 0.0 | 1.6 | 0.00 | 0.00 | 0.00 | 41 | |
| 20260906162820 | 26 | 109 | 0.0 | 1.6 | 0.00 | 0.00 | 0.00 | 41 | |
| 20260906162320 | 26 | 53 | 0.0 | 1.6 | 0.00 | 0.00 | 0.00 | 43 | |
| 20260906161815 | 26 | 69 | 0.0 | 0.0 | 0.00 | 0.00 | 0.00 | 40 | |
| 20260906161314 | 26 | 97 | 0.0 | 1.6 | 0.00 | 0.00 | 0.00 | 42 | |
| 20260906160813 | 25 | 129 | 0.0 | 1.6 | 0.00 | 0.00 | 0.00 | 43 | |
| 20260906160308 | 25 | 159 | 0.0 | 1.6 | 0.00 | 0.00 | 0.00 | 43 | |
| 20260906155805 | 26 | 78 | 0.0 | 1.6 | 0.00 | 0.00 | 0.00 | 42 | |
| 20260906155300 | 25 | 106 | 0.0 | 1.6 | 0.00 | 0.00 | 0.00 | 43 | |
| 20260906154756 | 25 | 147 | 0.0 | 1.6 | 0.00 | 0.00 | 0.00 | 43 | |
| 20260906154250 | 25 | 134 | 0.0 | 1.6 | 0.00 | 0.00 | 0.00 | 44 | |
| 20260906153749 | 25 | 140 | 1.6 | 1.6 | 0.00 | 0.00 | 0.00 | 44 | |
| 20260906153243 | 25 | 196 | 0.0 | 1.6 | 0.00 | 0.00 | 0.00 | 45 | |
| 20260906152738 | 25 | 137 | 0.0 | 1.6 | 0.00 | 0.00 | 0.00 | 45 | |
| 20260906152233 | 25 | 113 | 0.0 | 1.6 | 0.00 | 0.00 | 0.00 | 44 | |
| 20260906151732 | 25 | 144 | 0.0 | 0.0 | 0.00 | 0.00 | 0.00 | 46 | |
| 20260906151228 | 25 | 135 | 0.0 | 0.0 | 0.00 | 0.00 | 0.00 | 44 | |
| 20260906150724 | 26 | 260 | 0.0 | 0.0 | 0.00 | 0.00 | 0.00 | 45 | |
| 20260906150219 | 26 | 146 | 0.0 | 0.0 | 0.00 | 0.00 | 0.00 | 43 | |
| 20260906145718 | 26 | 265 | 0.0 | 0.0 | 0.00 | 0.00 | 0.00 | 44 | |
| 20260906145217 | 25 | 289 | 0.0 | 0.0 | 0.00 | 0.00 | 0.00 | 45 | |
| 20260906144712 | 24 | 202 | 0.0 | 0.0 | 0.00 | 0.00 | 0.00 | 47 | |
| 20260906144207 | 24 | 271 | 0.0 | 0.0 | 0.00 | 0.00 | 0.00 | 48 | |
| 20260906143706 | 24 | 230 | 0.0 | 0.0 | 0.00 | 0.00 | 0.00 | 47 | |
| 20260906143204 | 23 | 0 | 0.0 | 0.0 | 0.00 | 0.00 | 0.00 | 49 | |
| 20260906142703 | 23 | 293 | 0.0 | 0.0 | 0.00 | 0.00 | 0.00 | 51 | |
| 20260906142159 | 23 | 129 | 0.0 | 0.0 | 0.00 | 0.00 | 0.00 | 52 | |
| 20260906141657 | 22 | 206 | 0.0 | 0.0 | 0.00 | 0.00 | 0.00 | 52 | |
| 20260906141152 | 22 | 89 | 0.0 | 0.0 | 0.00 | 0.00 | 0.00 | 53 | |
| 20260906140652 | 22 | 165 | 0.0 | 0.0 | 0.00 | 0.00 | 0.00 | 53 | |
| 20260906140147 | 22 | 113 | 0.0 | 0.0 | 0.00 | 0.00 | 0.00 | 55 | |
| 20260906135643 | 21 | 162 | 0.0 | 0.0 | 0.00 | 0.00 | 0.00 | 57 | |
| 20260906135140 | 21 | 175 | 0.0 | 0.0 | 0.00 | 0.00 | 0.00 | 56 | |
| 20260906134635 | 21 | 129 | 0.0 | 0.0 | 0.00 | 0.00 | 0.00 | 58 | |
| 20260906134130 | 20 | 197 | 0.0 | 0.0 | 0.00 | 0.00 | 0.00 | 58 | |
| 20260906133626 | 22 | 148 | 0.0 | 0.0 | 0.00 | 0.00 | 0.00 | 53 | |
| 20260906133121 | 21 | 56 | 0.0 | 0.0 | 0.00 | 0.00 | 0.00 | 58 | |
| 20260906132616 | 20 | 355 | 0.0 | 0.0 | 0.00 | 0.00 | 0.00 | 60 | |
| 20260906132111 | 19 | 326 | 0.0 | 0.0 | 0.00 | 0.00 | 0.00 | 62 | |
| 20260906131606 | 18 | 3 | 0.0 | 0.0 | 0.00 | 0.00 | 0.00 | 62 | |
| 20260906131102 | 18 | 57 | 0.0 | 0.0 | 0.00 | 0.00 | 0.00 | 64 | |
| 20260906130556 | 17 | 322 | 0.0 | 0.0 | 0.00 | 0.00 | 0.00 | 66 | |
| 20260906130051 | 17 | 43 | 0.0 | 0.0 | 0.00 | 0.00 | 0.00 | 68 | |
| 20260906125548 | 17 | 345 | 0.0 | 0.0 | 0.00 | 0.00 | 0.00 | 69 | |
| 20260906125049 | 17 | 350 | 0.0 | 0.0 | 0.00 | 0.00 | 0.00 | 69 | |
| 20260906124544 | 16 | 0 | 0.0 | 0.0 | 0.00 | 0.00 | 0.00 | 70 | |
| 20260906124039 | 16 | 7 | 0.0 | 0.0 | 0.00 | 0.00 | 0.00 | 70 | |
| 20260906123538 | 16 | 38 | 0.0 | 0.0 | 0.00 | 0.00 | 0.00 | 70 | |
| 20260906123033 | 16 | 9 | 0.0 | 0.0 | 0.00 | 0.00 | 0.00 | 69 | |
| 20260906122527 | 17 | 347 | 0.0 | 0.0 | 0.00 | 0.00 | 0.00 | 69 | |
| 20260906122024 | 16 | 342 | 0.0 | 0.0 | 0.00 | 0.00 | 0.00 | 70 | |
| 20260906121519 | 16 | 1 | 0.0 | 0.0 | 0.00 | 0.00 | 0.00 | 71 | |
| 20260906121015 | 16 | 347 | 0.0 | 0.0 | 0.00 | 0.00 | 0.00 | 72 | |
| 20260906120510 | 16 | 357 | 0.0 | 0.0 | 0.00 | 0.00 | 0.00 | 72 | |
| 20260906120008 | 16 | 139 | 0.0 | 0.0 | 0.00 | 0.00 | 0.00 | 71 | |
| 20260906115502 | 16 | 343 | 0.0 | 0.0 | 0.00 | 0.00 | 0.00 | 70 | |
| 20260906115002 | 16 | 354 | 0.0 | 0.0 | 0.00 | 0.00 | 0.00 | 69 | |
| 20260906114456 | 16 | 329 | 0.0 | 0.0 | 0.00 | 0.00 | 0.00 | 68 | |
| 20260906113953 | 17 | 27 | 0.0 | 0.0 | 0.00 | 0.00 | 0.00 | 67 | |
| 20260906113451 | 17 | 29 | 0.0 | 0.0 | 0.00 | 0.00 | 0.00 | 65 | |
| 20260906112947 | 17 | 341 | 0.0 | 0.0 | 0.00 | 0.00 | 0.00 | 64 | |
| 20260906112442 | 17 | 316 | 0.0 | 0.0 | 0.00 | 0.00 | 0.00 | 64 | |
| 20260906111938 | 17 | 313 | 0.0 | 0.0 | 0.00 | 0.00 | 0.00 | 65 | |
| 20260906111437 | 17 | 316 | 0.0 | 0.0 | 0.00 | 0.00 | 0.00 | 65 | |
| 20260906110932 | 17 | 298 | 0.0 | 0.0 | 0.00 | 0.00 | 0.00 | 66 | |
| 20260906110427 | 17 | 315 | 0.0 | 0.0 | 0.00 | 0.00 | 0.00 | 67 | |
| 20260906105926 | 17 | 316 | 0.0 | 0.0 | 0.00 | 0.00 | 0.00 | 68 | |
| 20260906105422 | 17 | 318 | 0.0 | 0.0 | 0.00 | 0.00 | 0.00 | 68 | |
| 20260906104918 | 17 | 335 | 0.0 | 0.0 | 0.00 | 0.00 | 0.00 | 68 | |
| 20260906104416 | 17 | 311 | 0.0 | 0.0 | 0.00 | 0.00 | 0.00 | 68 | |
| 20260906103916 | 17 | 314 | 0.0 | 0.0 | 0.00 | 0.00 | 0.00 | 69 | |
| 20260906103414 | 17 | 278 | 0.0 | 0.0 | 0.00 | 0.00 | 0.00 | 70 | |
| 20260906102910 | 17 | 352 | 0.0 | 0.0 | 0.00 | 0.00 | 0.00 | 69 | |
| 20260906102409 | 18 | 319 | 0.0 | 0.0 | 0.00 | 0.00 | 0.00 | 68 | |
| 20260906101904 | 18 | 350 | 0.0 | 0.0 | 0.00 | 0.00 | 0.00 | 68 | |
| 20260906101359 | 19 | 16 | 0.0 | 0.0 | 0.00 | 0.00 | 0.00 | 67 | |
| 20260906100855 | 20 | 338 | 0.0 | 0.0 | 0.00 | 0.00 | 0.00 | 65 | |
| 20260906100354 | 20 | 126 | 0.0 | 0.0 | 0.00 | 0.00 | 0.00 | 65 | |
| 20260906095849 | 20 | 133 | 0.0 | 0.0 | 0.00 | 0.00 | 0.00 | 65 | |
| 20260906095344 | 20 | 126 | 0.0 | 0.0 | 0.00 | 0.00 | 0.00 | 65 | |
| 20260906094844 | 20 | 112 | 0.0 | 0.0 | 0.00 | 0.00 | 0.00 | 65 | |
| 20260906094339 | 20 | 107 | 0.0 | 0.0 | 0.00 | 0.00 | 0.00 | 66 | |
| 20260906093835 | 20 | 99 | 0.0 | 0.0 | 0.00 | 0.00 | 0.00 | 64 | |
| 20260906093331 | 20 | 137 | 0.0 | 0.0 | 0.00 | 0.00 | 0.00 | 63 | |
| 20260906092826 | 20 | 120 | 0.0 | 0.0 | 0.00 | 0.00 | 0.00 | 61 | |
| 20260906092325 | 18 | 130 | 0.0 | 1.6 | 0.00 | 0.00 | 0.00 | 63 | |
| 20260906091821 | 18 | 135 | 0.0 | 0.0 | 0.00 | 0.00 | 0.00 | 62 | |
| 20260906091317 | 18 | 89 | 0.0 | 0.0 | 0.00 | 0.00 | 0.00 | 60 | |
| 20260906090814 | 18 | 29 | 0.0 | 0.0 | 0.00 | 0.00 | 0.00 | 60 | |
| 20260906090312 | 18 | 58 | 0.0 | 0.0 | 0.00 | 0.00 | 0.00 | 60 | |
| 20260906085812 | 18 | 50 | 0.0 | 0.0 | 0.00 | 0.00 | 0.00 | 61 | |
| 20260906085307 | 18 | 81 | 0.0 | 0.0 | 0.00 | 0.00 | 0.00 | 61 | |
| 20260906084800 | 18 | 24 | 0.0 | 0.0 | 0.00 | 0.00 | 0.00 | 60 | |
| 20260906084300 | 18 | 49 | 0.0 | 0.0 | 0.00 | 0.00 | 0.00 | 59 | |
| 20260906083755 | 18 | 129 | 0.0 | 0.0 | 0.00 | 0.00 | 0.00 | 59 | |
| 20260906083251 | 18 | 129 | 0.0 | 0.0 | 0.00 | 0.00 | 0.00 | 59 | |
| 20260906082745 | 18 | 44 | 0.0 | 0.0 | 0.00 | 0.00 | 0.00 | 58 | |
| 20260906082240 | 18 | 66 | 0.0 | 0.0 | 0.00 | 0.00 | 0.00 | 58 | |
| 20260906081736 | 19 | 50 | 0.0 | 0.0 | 0.00 | 0.00 | 0.00 | 56 | |
| 20260906081231 | 20 | 30 | 0.0 | 0.0 | 0.00 | 0.00 | 0.00 | 55 | |
| 20260906080727 | 20 | 0 | 0.0 | 0.0 | 0.00 | 0.00 | 0.00 | 54 | |
| 20260906080224 | 21 | 3 | 0.0 | 0.0 | 0.00 | 0.00 | 0.00 | 52 | |
| 20260906075717 | 21 | 308 | 0.0 | 0.0 | 0.00 | 0.00 | 0.00 | 49 | |
| 20260906075212 | 22 | 291 | 0.0 | 1.6 | 0.00 | 0.00 | 0.00 | 49 | |
| 20260906074707 | 21 | 286 | 0.0 | 0.0 | 0.00 | 0.00 | 0.00 | 51 | |
| 20260906074207 | 21 | 288 | 0.0 | 0.0 | 0.00 | 0.00 | 0.00 | 52 | |
| 20260906073702 | 21 | 159 | 0.0 | 0.0 | 0.00 | 0.00 | 0.00 | 53 | |
| 20260906073157 | 21 | 294 | 0.0 | 0.0 | 0.00 | 0.00 | 0.00 | 54 | |
| 20260906072652 | 21 | 226 | 0.0 | 0.0 | 0.00 | 0.00 | 0.00 | 55 | |
| 20260906072148 | 21 | 169 | 0.0 | 0.0 | 0.00 | 0.00 | 0.00 | 55 | |
| 20260906071644 | 21 | 175 | 0.0 | 0.0 | 0.00 | 0.00 | 0.00 | 54 | |
| 20260906071143 | 22 | 20 | 0.0 | 0.0 | 0.00 | 0.00 | 0.00 | 53 | |
| 20260906070640 | 23 | 288 | 0.0 | 0.0 | 0.00 | 0.00 | 0.00 | 52 | |
| 20260906070136 | 23 | 308 | 0.0 | 0.0 | 0.00 | 0.00 | 0.00 | 52 | |
| 20260906065635 | 22 | 333 | 0.0 | 0.0 | 0.00 | 0.00 | 0.00 | 53 | |
| 20260906065131 | 22 | 343 | 0.0 | 0.0 | 0.00 | 0.00 | 0.00 | 53 | |
| 20260906064626 | 22 | 18 | 0.0 | 0.0 | 0.00 | 0.00 | 0.00 | 53 | |
| 20260906064121 | 22 | 5 | 0.0 | 1.6 | 0.00 | 0.00 | 0.00 | 53 | |
| 20260906063616 | 22 | 12 | 0.0 | 0.0 | 0.00 | 0.00 | 0.00 | 52 | |
| 20260906063112 | 22 | 347 | 0.0 | 0.0 | 0.00 | 0.00 | 0.00 | 51 | |
| 20260906062608 | 23 | 5 | 0.0 | 1.6 | 0.00 | 0.00 | 0.00 | 50 | |
| 20260906062106 | 23 | 350 | 0.0 | 0.0 | 0.00 | 0.00 | 0.00 | 49 | |
| 20260906061603 | 23 | 340 | 0.0 | 0.0 | 0.00 | 0.00 | 0.00 | 49 | |
| 20260906061102 | 23 | 17 | 1.6 | 1.6 | 0.00 | 0.00 | 0.00 | 48 | |
| 20260906060559 | 23 | 6 | 0.0 | 1.6 | 0.00 | 0.00 | 0.00 | 48 | |
| 20260906060056 | 23 | 21 | 0.0 | 1.6 | 0.00 | 0.00 | 0.00 | 48 | |
| 20260906055551 | 23 | 1 | 0.0 | 0.0 | 0.00 | 0.00 | 0.00 | 48 | |
| 20260906055046 | 23 | 21 | 0.0 | 0.0 | 0.00 | 0.00 | 0.00 | 49 | |
| 20260906054541 | 23 | 46 | 0.0 | 0.0 | 0.00 | 0.00 | 0.00 | 49 | |
| 20260906054036 | 23 | 104 | 0.0 | 0.0 | 0.00 | 0.00 | 0.00 | 49 | |
| 20260906053533 | 23 | 39 | 0.0 | 0.0 | 0.00 | 0.00 | 0.00 | 49 | |
| 20260906053028 | 23 | 37 | 0.0 | 0.0 | 0.00 | 0.00 | 0.00 | 48 | |
| 20260906052524 | 24 | 356 | 0.0 | 0.0 | 0.00 | 0.00 | 0.00 | 46 | |
| 20260906052021 | 25 | 350 | 0.0 | 1.6 | 0.00 | 0.00 | 0.00 | 46 | |
| 20260906051516 | 24 | 312 | 0.0 | 1.6 | 0.00 | 0.00 | 0.00 | 47 | |
| 20260906051011 | 24 | 14 | 0.0 | 0.0 | 0.00 | 0.00 | 0.00 | 47 | |
| 20260906050512 | 24 | 14 | 0.0 | 1.6 | 0.00 | 0.00 | 0.00 | 47 | |
| 20260906050006 | 24 | 17 | 0.0 | 1.6 | 0.00 | 0.00 | 0.00 | 46 | |
| 20260906045504 | 25 | 3 | 0.0 | 0.0 | 0.00 | 0.00 | 0.00 | 45 | |
| 20260906045000 | 25 | 9 | 0.0 | 1.6 | 0.00 | 0.00 | 0.00 | 44 | |
| 20260906044455 | 25 | 60 | 0.0 | 0.0 | 0.00 | 0.00 | 0.00 | 44 | |
| 20260906043951 | 24 | 52 | 0.0 | 0.0 | 0.00 | 0.00 | 0.00 | 44 | |
| 20260906043447 | 24 | 53 | 0.0 | 0.0 | 0.00 | 0.00 | 0.00 | 43 | |
| 20260906042943 | 24 | 83 | 0.0 | 0.0 | 0.00 | 0.00 | 0.00 | 42 | |
| 20260906042441 | 24 | 72 | 0.0 | 0.0 | 0.00 | 0.00 | 0.00 | 42 | |
| 20260906041936 | 24 | 83 | 0.0 | 0.0 | 0.00 | 0.00 | 0.00 | 42 | |
| 20260906041433 | 24 | 93 | 0.0 | 0.0 | 0.00 | 0.00 | 0.00 | 42 | |
| 20260906040932 | 25 | 44 | 0.0 | 0.0 | 0.00 | 0.00 | 0.00 | 41 | |
| 20260906040427 | 25 | 358 | 0.0 | 0.0 | 0.00 | 0.00 | 0.00 | 40 | |
| 20260906035922 | 24 | 15 | 0.0 | 0.0 | 0.00 | 0.00 | 0.00 | 39 | |
| 20260906035418 | 24 | 44 | 0.0 | 0.0 | 0.00 | 0.00 | 0.00 | 39 | |
| 20260906034913 | 24 | 352 | 0.0 | 0.0 | 0.00 | 0.00 | 0.00 | 39 | |
| 20260906034413 | 24 | 20 | 0.0 | 0.0 | 0.00 | 0.00 | 0.00 | 39 | |
| 20260906033909 | 25 | 32 | 0.0 | 0.0 | 0.00 | 0.00 | 0.00 | 39 | |
| 20260906033409 | 25 | 70 | 0.0 | 0.0 | 0.00 | 0.00 | 0.00 | 39 | |
| 20260906032904 | 25 | 342 | 0.0 | 0.0 | 0.00 | 0.00 | 0.00 | 40 | |
| 20260906032401 | 25 | 209 | 0.0 | 0.0 | 0.00 | 0.00 | 0.00 | 40 | |
| 20260906031855 | 25 | 51 | 0.0 | 0.0 | 0.00 | 0.00 | 0.00 | 39 | |
| 20260906031350 | 25 | 347 | 0.0 | 0.0 | 0.00 | 0.00 | 0.00 | 38 | |
| 20260906030845 | 26 | 111 | 0.0 | 0.0 | 0.00 | 0.00 | 0.00 | 37 | |
| 20260906030341 | 25 | 160 | 0.0 | 0.0 | 0.00 | 0.00 | 0.00 | 39 | |
| 20260906025835 | 25 | 27 | 0.0 | 0.0 | 0.00 | 0.00 | 0.00 | 39 | |
| 20260906025329 | 25 | 36 | 0.0 | 0.0 | 0.00 | 0.00 | 0.00 | 39 | |
| 20260906024828 | 25 | 31 | 0.0 | 0.0 | 0.00 | 0.00 | 0.00 | 39 | |
| 20260906024327 | 25 | 21 | 0.0 | 0.0 | 0.00 | 0.00 | 0.00 | 39 | |
| 20260906023823 | 25 | 56 | 0.0 | 0.0 | 0.00 | 0.00 | 0.00 | 38 | |
| 20260906023318 | 25 | 355 | 0.0 | 0.0 | 0.00 | 0.00 | 0.00 | 38 | |
| 20260906022814 | 23 | 353 | 0.0 | 0.0 | 0.00 | 0.00 | 0.00 | 39 | |
| 20260906022309 | 24 | 76 | 0.0 | 0.0 | 0.00 | 0.00 | 0.00 | 39 | |
| 20260906021805 | 25 | 49 | 0.0 | 0.0 | 0.00 | 0.00 | 0.00 | 39 | |
| 20260906021304 | 25 | 332 | 0.0 | 0.0 | 0.00 | 0.00 | 0.00 | 38 | |
| 20260906020758 | 25 | 338 | 0.0 | 0.0 | 0.00 | 0.00 | 0.00 | 37 | |
| 20260906020253 | 25 | 13 | 0.0 | 0.0 | 0.00 | 0.00 | 0.00 | 37 | |
| 20260906015753 | 26 | 32 | 0.0 | 0.0 | 0.00 | 0.00 | 0.00 | 37 | |
| 20260906015251 | 26 | 346 | 0.0 | 0.0 | 0.00 | 0.00 | 0.00 | 36 | |
| 20260906014746 | 26 | 348 | 0.0 | 0.0 | 0.00 | 0.00 | 0.00 | 36 | |
| 20260906014242 | 26 | 354 | 0.0 | 0.0 | 0.00 | 0.00 | 0.00 | 36 | |
| 20260906013738 | 26 | 352 | 0.0 | 0.0 | 0.00 | 0.00 | 0.00 | 36 | |
| 20260906013237 | 27 | 356 | 0.0 | 0.0 | 0.00 | 0.00 | 0.00 | 35 | |
| 20260906012733 | 27 | 46 | 0.0 | 0.0 | 0.00 | 0.00 | 0.00 | 35 | |
| 20260906012227 | 28 | 304 | 0.0 | 0.0 | 0.00 | 0.00 | 0.00 | 33 | |
| 20260906011723 | 28 | 344 | 0.0 | 0.0 | 0.00 | 0.00 | 0.00 | 33 | |
| 20260906011217 | 28 | 320 | 0.0 | 0.0 | 0.00 | 0.00 | 0.00 | 33 | |
| 20260906010713 | 28 | 340 | 0.0 | 0.0 | 0.00 | 0.00 | 0.00 | 33 | |
| 20260906010209 | 28 | 344 | 0.0 | 1.6 | 0.00 | 0.00 | 0.00 | 32 | |
| 20260906005708 | 28 | 352 | 0.0 | 0.0 | 0.00 | 0.00 | 0.00 | 32 | |
| 20260906005203 | 29 | 354 | 0.0 | 0.0 | 0.00 | 0.00 | 0.00 | 32 | |
| 20260906004701 | 29 | 354 | 0.0 | 0.0 | 0.00 | 0.00 | 0.00 | 31 | |
| 20260906004156 | 30 | 342 | 1.6 | 1.6 | 0.00 | 0.00 | 0.00 | 31 | |
| 20260906003652 | 30 | 39 | 0.0 | 1.6 | 0.00 | 0.00 | 0.00 | 31 | |
| 20260906003147 | 30 | 9 | 0.0 | 1.6 | 0.00 | 0.00 | 0.00 | 30 | |
| 20260906002642 | 30 | 5 | 0.0 | 1.6 | 0.00 | 0.00 | 0.00 | 30 | |
| 20260906002137 | 31 | 346 | 0.0 | 1.6 | 0.00 | 0.00 | 0.00 | 30 | |
| 20260906001632 | 31 | 350 | 0.0 | 3.2 | 0.00 | 0.00 | 0.00 | 30 | |
| 20260906001132 | 32 | 337 | 0.0 | 0.0 | 0.00 | 0.00 | 0.00 | 27 | |
| 20260906000628 | 32 | 67 | 0.0 | 3.2 | 0.00 | 0.00 | 0.00 | 26 | |
| 20260906000123 | 31 | 348 | 0.0 | 1.6 | 0.00 | 0.00 | 0.00 | 28 | |
| 20260905235621 | 31 | 343 | 0.0 | 1.6 | 0.00 | 0.00 | 0.00 | 31 | |
| 20260905235117 | 30 | 348 | 1.6 | 1.6 | 0.00 | 0.00 | 0.00 | 30 | |
| 20260905234612 | 31 | 5 | 0.0 | 1.6 | 0.00 | 0.00 | 0.00 | 30 | |
| 20260905234108 | 31 | 347 | 0.0 | 1.6 | 0.00 | 0.00 | 0.00 | 31 | |
| 20260905233602 | 31 | 345 | 1.6 | 3.2 | 0.00 | 0.00 | 0.00 | 29 | |
| 20260905233056 | 31 | 335 | 1.6 | 3.2 | 0.00 | 0.00 | 0.00 | 29 | |
| 20260905232552 | 30 | 5 | 0.0 | 1.6 | 0.00 | 0.00 | 0.00 | 32 | |
| 20260905232048 | 30 | 341 | 1.6 | 3.2 | 0.00 | 0.00 | 0.00 | 32 | |
| 20260905231542 | 31 | 335 | 3.2 | 3.2 | 0.00 | 0.00 | 0.00 | 29 | |
| 20260905231039 | 33 | 268 | 0.0 | 1.6 | 0.00 | 0.00 | 0.00 | 26 | |
| 20260905230538 | 33 | 334 | 0.0 | 1.6 | 0.00 | 0.00 | 0.00 | 25 | |
| 20260905230037 | 32 | 38 | 0.0 | 1.6 | 0.00 | 0.00 | 0.00 | 25 | |
| 20260905225531 | 32 | 14 | 0.0 | 1.6 | 0.00 | 0.00 | 0.00 | 25 | |
| 20260905225026 | 32 | 99 | 0.0 | 1.6 | 0.00 | 0.00 | 0.00 | 25 | |
| 20260905224521 | 32 | 128 | 0.0 | 1.6 | 0.00 | 0.00 | 0.00 | 24 | |
| 20260905224020 | 32 | 92 | 0.0 | 1.6 | 0.00 | 0.00 | 0.00 | 25 | |
| 20260905223518 | 32 | 93 | 0.0 | 0.0 | 0.00 | 0.00 | 0.00 | 25 | |
| 20260905223013 | 32 | 121 | 0.0 | 1.6 | 0.00 | 0.00 | 0.00 | 25 | |
| 20260905222508 | 33 | 116 | 0.0 | 1.6 | 0.00 | 0.00 | 0.00 | 25 | |
| 20260905222003 | 33 | 106 | 0.0 | 1.6 | 0.00 | 0.00 | 0.00 | 24 | |
| 20260905221500 | 33 | 117 | 0.0 | 0.0 | 0.00 | 0.00 | 0.00 | 23 | |
| 20260905220955 | 33 | 356 | 0.0 | 0.0 | 0.00 | 0.00 | 0.00 | 23 | |
| 20260905220451 | 33 | 86 | 0.0 | 0.0 | 0.00 | 0.00 | 0.00 | 24 | |
| 20260905215950 | 33 | 354 | 0.0 | 1.6 | 0.00 | 0.00 | 0.00 | 24 | |
| 20260905215446 | 34 | 78 | 0.0 | 1.6 | 0.00 | 0.00 | 0.00 | 23 |